Location: Observatory
(52.1446°N, 0.4624°W)
Time: 15:52:36
(UTC+01:00)

ISS - Pass Details

Date: 07 January 2018
Orbit: 402 x 409 km, 51.6° (Epoch: 17 August)

Event Time Altitude Azimuth Distance (km) Brightness Sun altitude
Exits shadow 03:32:50 -1° 78° (ENE) 2,438 1.0 -41.0°
Enters shadow 04:29:44 -63° 259° (W) 11,787 3.6 -32.4°
Sets 05:09:22 0° 87° (E) 2,381 1.4 -26.4°
